Location: ????????
(56.0833°N, 37.7000°E)
Time: 22:15:58
(UTC+00:00)

Daily predictions for brighter satellites

Satellite Brightness Start Highest point End
(mag) Time Altitude Azimuth Time Altitude Azimuth Time Altitude Azimuth
STARLINK-1130 (DARKSAT) 3.7 18:41:21 10° WSW 18:45:25 57° S 18:49:30 10° E
Cosmos 389 Rocket 3.4 18:42:30 10° SSW 18:45:53 51° WNW 18:49:21 10° N
Okean 1 4.0 18:42:26 10° SSW 18:46:26 58° WNW 18:50:27 10° N
Meteor 1-19 Rocket 4.3 18:41:49 10° SSW 18:47:27 88° ESE 18:53:19 10° NNE
SL-4 R/B 1.4 18:44:08 10° NW 18:47:27 89° SW 18:50:34 10° SE
STARLINK-1083 4.0 18:43:53 10° W 18:47:53 47° SSW 18:51:52 10° ESE
STARLINK-1084 3.7 18:46:20 10° WSW 18:50:24 57° S 18:54:28 10° E
ISS -2.9 18:48:48 10° WSW 18:51:53 33° SSW 18:54:57 10° SE
Cosmos 2278 Rocket 2.7 18:47:08 10° S 18:52:25 42° ESE 18:57:45 10° NE
STARLINK-1125 4.0 18:48:51 10° W 18:52:51 46° SSW 18:56:49 10° ESE
Meteor 1-12 Rocket 4.3 18:47:57 10° NNW 18:53:38 84° WSW 18:59:18 10° S
SL-8 R/B 4.5 18:49:43 10° SW 18:53:56 31° S 18:58:11 10° ESE
NOSS 2-3 (E) 4.1 18:50:41 10° SSW 18:54:57 47° SE 19:00:07 10° ENE
STARLINK-1098 3.7 18:51:18 10° WSW 18:55:22 57° S 18:59:27 10° E
CARTOSAT-1 3.7 18:51:59 10° SSE 18:56:19 83° WSW 19:00:40 10° NNW
STARLINK-1109 4.1 18:53:49 10° W 18:57:47 45° SSW 19:01:45 10° SE
STARLINK-1123 3.7 18:56:15 10° WSW 19:00:20 57° S 19:04:25 10° ESE
Lacrosse 5 2.2 18:55:26 10° WNW 19:00:23 54° SSW 19:05:18 10° SE
STARLINK-1091 4.1 18:58:48 10° W 19:02:45 44° SSW 19:06:41 10° SE
STARLINK-67 2.5 19:01:20 10° WSW 19:03:08 31° S 19:04:56 10° ESE
Cosmos 1844 Rocket 3.4 18:57:34 10° SW 19:03:10 60° NW 19:08:48 10° NNE
Terra 1.9 19:00:06 10° SSE 19:04:52 83° ENE 19:09:40 10° NNW
STARLINK-1097 3.7 19:01:13 10° W 19:05:18 57° S 19:09:23 10° ESE
Cosmos 1437 Rocket 3.5 19:02:00 10° SSE 19:05:26 34° E 19:08:55 10° NNE
STARLINK-1072 4.1 19:03:47 10° W 19:07:43 42° SSW 19:11:38 10° SE
STARLINK-1099 3.7 19:06:10 10° W 19:10:14 57° S 19:14:19 10° ESE
Cosmos 1452 Rocket 4.1 19:07:04 10° S 19:11:59 41° ESE 19:16:55 10° NE
Cosmos 1300 Rocket 4.0 19:07:46 10° NNW 19:12:11 62° W 19:16:34 10° S
STARLINK-1096 4.2 19:08:47 10° W 19:12:42 41° SSW 19:16:36 10° SE
STARLINK-1228 3.6 19:10:39 10° SW 19:13:45 36° SSE 19:16:50 10° E
NOSS 2-3 (D) 3.9 19:10:27 10° SSW 19:14:48 58° SE 19:20:10 10° NE
STARLINK-1104 3.7 19:11:08 10° W 19:15:13 56° S 19:19:18 10° ESE
Cosmos 2084 Rocket 3.5 19:12:26 10° SW 19:16:46 87° NNW 19:21:12 10° NE
COSMOS 2406 4.5 19:12:26 10° NW 19:17:34 34° WSW 19:22:39 10° S
STARLINK-1079 4.2 19:13:43 10° W 19:17:37 39° SSW 19:21:29 10° SE
Okean 3 3.6 19:13:30 10° SSW 19:17:49 80° WNW 19:22:10 10° N
STARLINK-1234 3.5 19:15:13 10° SW 19:18:05 34° SSE 19:20:58 10° E
Cosmos 1420 Rocket 4.1 19:13:36 10° S 19:18:42 59° ESE 19:23:50 10° NNE
USA 215 3.4 19:12:15 10° SE 19:18:46 67° SSW 19:25:18 10° WNW
STARLINK-1212 3.6 19:16:43 10° SW 19:19:30 30° SSE 19:22:17 10° E
STARLINK-1209 3.5 19:16:46 10° SW 19:19:41 35° SSE 19:22:37 10° E
STARLINK-1105 3.6 19:17:11 10° SW 19:19:58 30° SSE 19:22:45 10° E
STARLINK-1144 3.7 19:16:07 10° W 19:20:12 56° S 19:24:16 10° ESE
NOSS 3-2 (C) 4.4 19:13:30 10° WNW 19:20:23 62° NNE 19:28:19 10° ESE
STARLINK-1154 4.4 19:16:49 10° SSW 19:20:24 29° SSE 19:24:00 10° E
STARLINK-1247 3.6 19:18:04 10° SW 19:20:53 31° SSE 19:23:42 10° E
STARLINK-1227 3.6 19:18:32 10° SW 19:21:20 31° SSE 19:24:07 10° E
Meteor 1-13 Rocket 4.3 19:16:08 10° S 19:21:43 75° E 19:27:26 10° NNE
STARLINK-1226 3.6 19:19:23 10° SW 19:22:11 31° SSE 19:25:00 10° E
STARLINK-1116 4.3 19:18:43 10° W 19:22:35 38° SSW 19:26:21 10° SE
STARLINK-1215 3.6 19:20:18 10° SW 19:23:07 31° SSE 19:25:57 10° E
Crew Dragon 1.9 19:21:42 10° WSW 19:23:15 17° SSW 19:24:08 14° SSE
Cosmos 2221 Rocket 3.8 19:19:16 10° SSW 19:23:47 77° WNW 19:28:21 10° N
Cosmos 1766 4.0 19:20:23 10° N 19:24:11 43° ENE 19:27:42 12° SE
STARLINK-1217 3.6 19:22:04 10° SW 19:24:53 32° SSE 19:27:43 10° E
STARLINK-1103 3.7 19:21:06 10° W 19:25:09 55° S 19:29:13 10° ESE
STARLINK-1197 4.4 19:21:42 10° SW 19:25:21 30° SSE 19:28:59 10° E
Meteor 2-4 Rocket 3.8 19:20:11 10° SSW 19:25:34 76° WNW 19:30:58 10° NNE
STARLINK-1229 3.6 19:22:58 10° SW 19:25:48 32° SSE 19:28:39 10° E
USA 229 DEB 3.8 19:19:12 10° SW 19:25:51 86° NW 19:32:58 10° NE
USA 229 3.8 19:19:18 10° SW 19:25:58 87° NW 19:33:04 10° NE
STARLINK-1270 3.6 19:23:49 10° SW 19:26:40 32° SSE 19:29:31 10° E
MTI 4.1 19:23:59 10° NNE 19:27:03 47° E 19:29:55 11° S
Cosmos 371 Rocket 3.6 19:22:34 10° S 19:27:15 49° ESE 19:31:58 10° NE
STARLINK-1189 3.5 19:25:39 10° SW 19:28:30 33° SSE 19:31:21 10° E
SL-27 R/B 4.4 19:25:39 10° N 19:28:40 24° NE 19:31:39 10° ESE
STARLINK-1188 3.5 19:26:31 10° SW 19:29:22 33° SSE 19:32:14 10° E
Resurs 01 Rocket 4.3 19:27:22 10° WSW 19:29:41 14° W 19:32:01 10° NW
STARLINK-1235 3.4 19:27:07 10° SW 19:30:01 36° SSE 19:32:53 10° E
STARLINK-1101 3.7 19:26:04 10° W 19:30:07 55° S 19:34:11 10° ESE
STARLINK-1198 4.3 19:26:35 10° SW 19:30:16 31° SSE 19:33:57 10° E
STARLINK-1187 3.4 19:27:35 10° SW 19:30:26 34° SSE 19:33:18 10° E
STARLINK-1191 3.5 19:28:59 10° SW 19:31:50 33° SSE 19:34:40 10° E
Cosmos 1674 Rocket 3.6 19:28:03 10° S 19:32:22 66° E 19:36:45 10° NNE
STARLINK-1094 4.4 19:28:41 10° W 19:32:30 35° SSW 19:35:55 12° SE
STARLINK-1221 3.5 19:29:51 10° SW 19:32:42 34° SSE 19:35:33 10° E
STARLINK-1222 3.5 19:30:43 10° SW 19:33:35 34° SSE 19:36:26 10° E
SL-4 R/B 3.1 19:32:21 10° E 19:33:41 14° ENE 19:35:00 10° NNE
NOSS 3-1 (C) 3.7 19:28:02 10° WSW 19:33:52 78° NNW 19:40:51 10° NE
STARLINK-1214 3.5 19:31:38 10° SW 19:34:30 34° SSE 19:37:21 10° E
NOSS 3-1 (A) 3.5 19:29:01 10° SW 19:34:48 84° SE 19:41:42 10° NE
STARLINK-1102 3.8 19:31:03 10° W 19:35:06 54° S 19:39:09 10° ESE
OPS 8737 4.0 19:31:53 10° SW 19:35:08 84° SE 19:38:00 10° NE
STARLINK-1199 4.3 19:31:31 10° SW 19:35:15 33° SSE 19:38:59 10° E
Nadezhda 4 Rocket 4.1 19:29:22 10° S 19:35:25 62° E 19:41:28 10° NNE
ATLAS 3B R/B 3.6 19:30:23 10° WNW 19:36:51 49° NNE 19:43:28 10° E
Abrixas rocket 3.5 19:34:51 10° SW 19:37:01 19° S 19:38:15 15° SE
deb Kosmos-1763 4.0 19:33:32 10° NNW 19:37:10 86° ENE 19:40:13 14° SSE
STARLINK-1117 4.4 19:33:40 10° W 19:37:26 34° SSW 19:40:42 13° SE
SPOT 5 3.9 19:33:59 10° S 19:38:55 46° W 19:44:03 10° NNW
Cosmos 1741 Rocket 4.3 19:34:14 10° NNW 19:39:24 60° WSW 19:44:11 12° S
Meteor 1-4 Rocket 4.2 19:36:23 10° SW 19:39:31 32° WNW 19:42:42 10° N
Cosmos 1378 Rocket 3.7 19:35:33 10° S 19:39:53 62° E 19:44:15 10° NNE
STARLINK-1111 3.8 19:36:00 10° W 19:40:03 53° S 19:44:06 10° ESE
STARLINK-1210 4.2 19:36:25 10° SW 19:40:10 34° SSE 19:43:57 10° E
CENTAUR R/B 3.5 19:33:28 10° NW 19:40:55 67° NNE 19:49:26 10° ESE
STARLINK-1078 4.5 19:38:39 10° W 19:42:23 33° SSW 19:45:29 13° SE
Cosmos 1733 3.6 19:40:36 10° N 19:44:23 52° ENE 19:47:29 14° SSE
STARLINK-1073 3.8 19:40:59 10° W 19:45:02 52° S 19:49:04 10° ESE
STARLINK-1219 4.2 19:41:20 10° SW 19:45:08 35° SSE 19:48:56 10° E
NOSS 2-3 (C) 3.9 19:41:03 10° SW 19:45:35 87° SE 19:51:17 10° NE
Cosmos 2297 4.4 19:43:34 11° S 19:48:26 36° ESE 19:53:37 10° NE
STARLINK-1121 3.8 19:45:56 10° W 19:49:58 51° S 19:54:00 10° ESE
Cosmos 1975 Rocket 4.1 19:46:39 13° SSE 19:50:00 33° E 19:53:59 10° NNE
STARLINK-1211 4.1 19:46:14 10° SW 19:50:04 37° SSE 19:53:54 10° E
BREEZE M DEB (TANK) 4.0 19:50:04 10° SSW 19:51:51 15° S 19:51:51 15° S
STARLINK-1106 3.8 19:50:54 10° W 19:54:56 50° SSW 19:58:57 10° ESE
STARLINK-1245 4.1 19:51:11 10° SW 19:55:01 38° SSE 19:58:54 10° E
Cosmos 2082 Rocket 3.1 19:52:11 10° NW 19:57:29 39° WSW 20:02:27 11° S
STARLINK-1112 3.8 19:55:54 10° W 19:59:54 49° SSW 20:03:55 10° ESE
STARLINK-1233 4.0 19:56:06 10° SW 19:59:58 40° SSE 20:03:52 10° E
SeaSat 1 2.7 19:58:57 10° NE 20:03:46 50° ESE 20:08:33 10° SSW
ERBS 3.1 20:01:13 10° SSW 20:04:10 30° SE 20:07:08 10° E
STARLINK-1128 3.9 20:00:52 10° W 20:04:52 48° SSW 20:08:52 10° ESE
STARLINK-1204 4.0 20:01:02 10° SW 20:04:56 41° SSE 20:08:52 10° E
Okean 1 Rocket 3.8 20:01:16 10° NNW 20:05:38 49° W 20:09:39 12° SSW
Cosmos 1242 Rocket 4.4 20:03:35 13° SE 20:05:42 19° E 20:08:24 10° NE
Cosmos 1833 Rocket 4.3 20:01:38 10° NW 20:05:59 24° WSW 20:10:20 10° SSW
Cosmos 1867 4.5 20:01:17 10° NW 20:06:38 49° NNE 20:11:56 10° ESE
NOSS 3-2 (A) 4.0 19:59:41 10° NW 20:06:51 85° SW 20:15:05 10° SE
Cosmos 1470 3.6 20:03:13 10° N 20:06:56 40° ENE 20:09:56 14° SE
Cosmos 1110 Rocket 4.4 20:03:17 13° S 20:07:39 47° ESE 20:12:37 10° NE
STARLINK-1113 3.9 20:05:50 10° W 20:09:50 47° SSW 20:13:49 10° ESE
STARLINK-1238 3.9 20:05:57 10° SW 20:09:52 42° SSE 20:13:48 10° E
Cosmos 968 Rocket 4.1 20:07:59 10° NNW 20:13:05 52° NE 20:18:02 10° SE
Cosmos 1092 Rocket 4.0 20:07:42 13° S 20:13:17 72° E 20:19:25 10° NNE
USA 238 DEB 3.8 20:07:02 10° NW 20:14:09 81° SW 20:21:34 10° SE
USA 238 3.8 20:07:08 10° NW 20:14:15 81° SW 20:21:40 10° SE
STARLINK-1119 3.9 20:10:49 10° W 20:14:47 45° SSW 20:18:45 10° ESE
STARLINK-1201 3.9 20:10:54 10° SW 20:14:51 44° SSE 20:18:48 10° E
Cosmos 1805 3.7 20:11:11 10° NNW 20:15:04 56° W 20:18:10 15° S
EO 1 Del DPAF 3.3 20:12:01 10° NNE 20:15:47 59° ESE 20:18:36 17° S
Cosmos 304 Rocket 3.8 20:11:44 11° SSW 20:16:12 63° ESE 20:20:59 10° NNE
Cosmos 1455 Rocket 3.1 20:14:17 10° N 20:18:41 81° ENE 20:22:00 17° SSE
Cosmos 2369 Rocket 3.6 20:15:28 14° SSE 20:18:52 23° ESE 20:23:14 10° NE
STARLINK-1114 4.0 20:15:48 10° W 20:19:46 44° SSW 20:23:35 11° SE
STARLINK-1206 3.9 20:15:50 10° WSW 20:19:48 45° SSE 20:23:47 10° E
Cosmos 332 Rocket 3.8 20:15:00 10° SSW 20:19:55 88° WNW 20:24:52 10° NNE
SL-4 R/B 3.8 20:18:40 10° W 20:19:59 12° WSW 20:21:17 10° SW
Okean 2 3.5 20:17:46 16° S 20:20:54 63° E 20:25:02 10° NNE
Aureole 2 Rocket 2.3 20:19:11 18° S 20:21:18 52° ESE 20:24:17 10° NE
Cosmos 1486 Rocket 4.2 20:16:12 10° NNW 20:21:33 71° ENE 20:26:12 14° SE
Cosmos 1066 Rocket 4.3 20:16:48 10° SSW 20:22:14 73° WNW 20:27:37 10° NNE
OPS 6432 4.4 20:19:35 10° WNW 20:22:32 56° SW 20:24:56 18° SSE
Helios 1A 3.8 20:20:44 13° SE 20:24:13 42° ENE 20:28:11 10° N
STARLINK-1130 (DARKSAT) 4.0 20:20:45 10° W 20:24:42 43° SSW 20:28:21 12° SE
STARLINK-1205 3.8 20:20:47 10° WSW 20:24:46 46° SSE 20:28:45 10° E
ISS -1.8 20:25:59 10° WSW 20:28:01 15° SSW 20:28:26 15° SSW
STARLINK-1084 4.0 20:25:44 10° W 20:29:39 41° SSW 20:33:07 13° SE
STARLINK-1218 3.8 20:25:43 10° WSW 20:29:43 48° SSE 20:33:43 10° E
Cosmos 1943 Rocket 3.0 20:26:07 16° SSE 20:29:51 34° ESE 20:34:51 10° NE
Cosmos 1378 3.3 20:27:53 14° SSW 20:31:03 71° WNW 20:34:48 10° N
Cosmos 1331 Rocket 4.1 20:26:58 13° S 20:31:26 63° ESE 20:36:34 10° NNE
Cosmos 1842 3.4 20:30:09 18° S 20:32:54 63° E 20:36:47 10° NNE
Cosmos 1025 Rocket 4.1 20:31:50 16° SE 20:34:37 32° E 20:38:26 10° NNE
STARLINK-1098 4.1 20:30:44 10° W 20:34:38 40° SSW 20:37:55 14° SE
STARLINK-1254 3.8 20:30:41 10° WSW 20:34:41 49° SSE 20:38:42 10° E
STARLINK-67 3.9 20:33:13 10° WSW 20:33:56 16° SW 20:33:56 16° SW
SL-8 R/B 4.5 20:31:32 10° WSW 20:35:45 31° S 20:40:00 10° SE
Cosmos 2278 Rocket 3.0 20:30:53 10° WSW 20:36:27 53° NW 20:42:03 10° NNE
S3M 4.2 20:31:58 10° N 20:38:05 66° ENE 20:43:13 15° SSE
STARLINK-1123 4.1 20:35:42 10° W 20:39:34 39° SSW 20:42:41 14° SE
STARLINK-1231 3.7 20:35:39 10° WSW 20:39:40 50° SSE 20:43:41 10° E
Cosmos 1437 Rocket 4.4 20:38:23 10° SW 20:41:44 29° WNW 20:45:08 10° N
STARLINK-1246 4.4 20:38:42 10° SSW 20:42:19 30° SSE 20:45:57 10° E
Lacrosse 5 3.6 20:39:09 10° W 20:42:31 18° SW 20:44:51 13° SSW
Thor Agena Rocket 3.7 20:37:14 10° NNE 20:42:35 85° WNW 20:47:30 12° SSW
Terra 3.9 20:39:55 10° SW 20:43:14 19° W 20:46:34 10° NW
STARLINK-1097 4.2 20:40:41 10° W 20:44:32 37° SSW 20:47:28 15° SE
STARLINK-1232 3.7 20:40:36 10° WSW 20:44:38 51° S 20:48:40 10° E
ALOS 2 2.6 20:41:59 18° SSE 20:45:13 84° WSW 20:49:39 10° NNW
NOSS 8 (F) 4.1 20:44:13 13° SW 20:46:53 61° SE 20:50:01 10° ENE
STARLINK-1224 4.4 20:43:35 10° SW 20:47:16 31° SSE 20:50:56 10° E
Spot 4 4.5 20:44:17 16° S 20:48:01 48° W 20:52:45 10° NNW
STARLINK-1099 4.2 20:45:39 10° W 20:49:27 36° SSW 20:52:14 16° SE
Cosmos 1536 Rocket 4.4 20:46:41 17° SSE 20:49:31 38° E 20:53:34 10° NNE
STARLINK-1208 3.7 20:45:32 10° WSW 20:49:35 52° S 20:53:37 10° E
STARLINK-1228 3.2 20:46:48 10° WSW 20:50:02 49° S 20:53:16 10° ESE
STARLINK-1225 4.3 20:48:30 10° SW 20:52:13 32° SSE 20:55:57 10° E
GEOS 3 Rocket 3.9 20:47:08 10° ESE 20:52:21 74° NE 20:57:42 10° NW
STARLINK-1234 3.0 20:50:35 10° WSW 20:53:36 47° S 20:56:38 10° ESE
STARLINK-1104 4.3 20:50:38 10° W 20:54:25 34° SSW 20:57:01 17° SSE
Cosmos 1544 Rocket 3.7 20:50:08 10° NNW 20:54:26 66° W 20:57:29 19° S
STARLINK-1271 3.7 20:50:31 10° WSW 20:54:33 53° S 20:58:36 10° E
STARLINK-1212 3.0 20:51:59 10° WSW 20:54:59 47° S 20:58:00 10° ESE
STARLINK-1209 3.1 20:52:19 10° W 20:55:21 47° S 20:58:25 10° ESE
STARLINK-1105 3.0 20:52:27 10° WSW 20:55:28 47° S 20:58:27 10° ESE
Cosmos 1553 Rocket 4.1 20:49:29 10° NNW 20:55:52 79° W 21:00:53 17° S
STARLINK-1247 3.0 20:53:20 10° WSW 20:56:23 47° S 20:59:24 10° ESE
STARLINK-1227 3.0 20:53:49 10° WSW 20:56:50 47° S 20:59:49 10° ESE
STARLINK-1230 4.3 20:53:24 10° SW 20:57:09 34° SSE 21:00:55 10° E
SJ 16-02 4.3 20:55:23 10° N 20:57:32 13° NNE 20:59:40 10° ENE
STARLINK-1226 3.0 20:54:39 10° WSW 20:57:41 47° S 21:00:43 10° ESE
Cosmos 2228 4.4 20:54:17 10° N 20:58:08 31° ENE 21:01:53 10° SE
STARLINK-1215 3.0 20:55:36 10° WSW 20:58:37 47° S 21:01:39 10° ESE
STARLINK-1144 4.3 20:55:38 10° W 20:59:22 33° SSW 21:01:49 18° SSE
Cosmos 1726 2.5 20:55:43 10° N 20:59:22 55° ENE 21:01:55 18° SSE
STARLINK-1154 3.7 20:55:28 10° WSW 20:59:31 54° S 21:03:34 10° E
STARLINK-1217 3.0 20:57:22 10° WSW 21:00:24 47° S 21:03:24 10° ESE
Cosmos 1833 4.2 20:55:05 10° NW 21:00:47 86° NE 21:05:52 13° SE
STARLINK-1229 3.0 20:58:16 10° WSW 21:01:19 47° S 21:04:20 10° ESE
STARLINK-1243 4.2 20:58:19 10° SW 21:02:06 35° SSE 21:05:54 10° E
Aureole 3 Rocket 4.0 20:57:22 10° NNW 21:02:08 64° W 21:07:23 16° S
STARLINK-1270 3.0 20:59:08 10° WSW 21:02:10 47° S 21:05:12 10° ESE
USA 215 4.2 20:58:28 16° S 21:02:36 30° SW 21:08:15 10° WNW
SL-4 R/B 2.1 21:01:57 21° SW 21:02:39 25° W 21:04:35 10° NW
STARLINK-1189 3.0 21:00:58 10° WSW 21:04:00 47° S 21:07:02 10° ESE
SL-27 R/B 2.9 21:00:29 10° NW 21:04:01 49° WSW 21:06:05 22° S
STARLINK-1103 4.4 21:00:37 10° W 21:04:19 32° SSW 21:06:35 19° SSE
STARLINK-1197 3.7 21:00:25 10° WSW 21:04:29 55° S 21:08:32 10° E
STARLINK-1188 3.0 21:01:51 10° WSW 21:04:53 47° S 21:07:54 10° ESE
Cosmos 1953 2.4 21:01:16 10° N 21:05:18 73° ENE 21:08:04 19° SSE
STARLINK-1235 3.1 21:02:32 10° W 21:05:31 46° S 21:08:31 10° ESE
STARLINK-1187 3.0 21:02:58 10° WSW 21:05:57 46° S 21:08:57 10° ESE
Cosmos 2026 Rocket 4.2 21:01:21 13° SSW 21:07:00 71° WNW 21:13:22 10° N
Cosmos 1340 Rocket 3.1 21:03:00 10° N 21:07:00 62° ENE 21:09:57 17° SSE
STARLINK-1236 4.1 21:03:15 10° SW 21:07:04 36° SSE 21:10:53 10° E
STARLINK-1191 3.0 21:04:20 10° WSW 21:07:20 47° S 21:10:20 10° ESE
STARLINK-1221 3.0 21:05:12 10° WSW 21:08:12 47° S 21:11:13 10° ESE
STARLINK-1222 3.0 21:06:05 10° WSW 21:09:06 47° S 21:12:06 10° ESE
STARLINK-1101 4.5 21:05:36 10° W 21:09:16 30° SSW 21:11:21 19° SSE
STARLINK-1198 3.6 21:05:21 10° WSW 21:09:25 55° S 21:13:29 10° E
STARLINK-1214 3.0 21:07:01 10° WSW 21:10:00 47° S 21:13:01 10° ESE
Cosmos 1461 2.9 21:06:45 12° SW 21:10:41 73° SE 21:15:07 10° NE
NOSS 3-2 (C) 4.1 21:04:27 10° NW 21:11:39 66° SW 21:19:44 10° SSE
NOSS 2-2 (D) 3.5 21:09:53 19° SSW 21:12:20 49° SE 21:16:30 10° ENE
Cosmos 1758 3.7 21:09:43 10° NNW 21:13:40 54° W 21:16:19 20° SSW
Cosmos 1271 Rocket 2.8 21:11:25 21° S 21:13:51 68° E 21:17:45 10° NNE
STARLINK-1199 3.6 21:10:21 10° WSW 21:14:25 56° S 21:18:29 10° E
NOSS 8 (H) 4.1 21:13:44 16° SW 21:16:01 70° SE 21:19:14 10° NE
STARLINK-1269 4.1 21:13:05 10° SW 21:16:57 39° SSE 21:20:50 10° E
Meteor 1-16 Rocket 4.3 21:11:17 10° NNW 21:17:00 80° ENE 21:21:25 16° SSE
COSMOS 2487 3.0 21:14:05 10° NNW 21:17:31 53° ENE 21:20:20 14° SE
STARLINK-1210 3.6 21:15:18 10° WSW 21:19:22 56° S 21:23:26 10° E
Cosmos 2297 Rocket 4.0 21:15:07 10° NNW 21:20:09 31° NNE 21:25:10 10° E
Cosmos 1606 Rocket 4.2 21:16:51 10° N 21:21:05 49° ENE 21:24:35 14° SE
Cosmos 1707 2.7 21:18:47 21° S 21:21:19 77° E 21:25:14 10° NNE
Cosmos 2292 Rocket 3.9 21:18:44 19° SSE 21:21:34 46° E 21:24:58 10° NNE
STARLINK-1200 4.0 21:18:02 10° SW 21:21:56 41° SSE 21:25:50 10° E
STARLINK-1219 3.6 21:20:16 10° WSW 21:24:20 57° S 21:28:25 10° E
YAOGAN 11 4.1 21:21:15 19° S 21:24:20 75° WSW 21:28:42 10° NNW
ATLAS CENTAUR R/B 0.5 21:23:40 10° WNW 21:25:32 80° NNE 21:28:24 10° ESE
STARLINK-1192 4.0 21:22:58 10° SW 21:26:53 42° SSE 21:30:49 10° E
Cosmos 1975 Rocket 4.2 21:23:46 11° SW 21:27:49 39° WNW 21:32:00 10° N
ATLAS 3B R/B 2.7 21:21:24 10° NW 21:28:10 90° WNW 21:35:09 10° SE
Meteor 2-10 4.1 21:24:09 10° NNW 21:29:15 67° W 21:32:53 19° S
STARLINK-1211 3.6 21:25:13 10° WSW 21:29:17 57° S 21:33:22 10° E
Aureole 3 3.1 21:26:35 10° NNW 21:30:41 86° ENE 21:32:49 22° SSE
NOSS 2-2 (E) 3.3 21:27:53 12° SW 21:31:15 78° SE 21:35:48 10° NE
STARLINK-1244 3.9 21:27:53 10° SW 21:31:49 43° SSE 21:35:46 10° E
CENTAUR R/B 3.2 21:24:14 10° NW 21:31:55 62° SW 21:40:26 10° SSE
Cosmos 2297 4.2 21:26:46 10° SW 21:32:24 60° NW 21:38:06 10° NNE
STARLINK-1245 3.6 21:30:12 10° WSW 21:34:16 57° S 21:38:21 10° ESE
SL-16 R/B 3.9 21:28:58 10° ESE 21:34:29 36° NE 21:40:02 10° N
Cosmos 1777 Rocket 4.5 21:30:31 10° NNW 21:35:43 61° ENE 21:40:54 10° SE
Cosmos 2266 Rocket 4.0 21:31:36 17° S 21:36:22 74° E 21:42:25 10° NNE
STARLINK-1138 3.9 21:32:50 10° SW 21:36:47 45° SSE 21:40:45 10° E
SL-4 R/B 4.3 21:38:06 12° SE 21:38:44 12° SE 21:40:40 10° ESE
STARLINK-1203 3.9 21:34:57 10° WSW 21:38:59 46° SSE 21:43:01 10° E
STARLINK-1233 3.6 21:35:09 10° WSW 21:39:13 57° S 21:43:18 10° ESE
ERBS 2.2 21:36:53 10° WSW 21:40:13 88° SSE 21:43:34 10° ENE
Cosmos 1242 Rocket 3.2 21:37:35 16° SW 21:40:16 49° WNW 21:43:53 10° N
Cosmos 1503 Rocket 4.3 21:35:30 10° NW 21:40:40 56° WSW 21:44:32 18° S
SeaSat 1 3.6 21:36:37 10° NNE 21:41:17 43° NW 21:45:56 10° WSW
STARLINK-1143 3.9 21:37:46 10° WSW 21:41:45 46° SSE 21:45:44 10° E
Cosmos 1470 4.3 21:39:35 10° NNW 21:42:50 25° W 21:45:16 14° SW
STARLINK-1204 3.6 21:40:08 10° W 21:44:13 57° S 21:48:17 10° ESE
Cosmos 1674 3.3 21:43:44 19° SSE 21:46:07 45° E 21:49:45 10° NNE
ATLAS CENTAUR R/B 3.4 21:44:37 12° SE 21:46:29 16° ESE 21:48:59 10° E
STARLINK-1241 3.8 21:42:42 10° WSW 21:46:42 47° SSE 21:50:42 10° E
STARLINK-1238 3.6 21:45:04 10° W 21:49:08 57° S 21:53:13 10° ESE
Cosmos 1867 3.7 21:45:03 10° NW 21:50:27 61° SW 21:55:31 11° SSE
STARLINK-1239 3.8 21:47:39 10° WSW 21:51:39 48° SSE 21:55:40 10° E
NOSS 2-2 (C) 3.3 21:50:29 11° SW 21:54:02 88° NW 21:58:33 10° NE
STARLINK-1201 3.6 21:50:04 10° W 21:54:07 56° S 21:58:12 10° ESE
ATLAS 2AS CENTAUR R/B 3.5 21:48:30 16° S 21:54:38 47° ESE 22:02:05 10° NE
Cosmos 968 Rocket 4.4 21:50:05 10° NW 21:54:45 35° WSW 21:58:02 17° SSW
Cosmos 1354 Rocket 4.4 21:50:23 10° NW 21:55:29 49° WSW 21:59:15 18° S
Meteor 2-19 Rocket 4.5 21:50:34 17° SSW 21:55:30 87° WNW 22:01:41 10° NNE
Cosmos 2227 Rocket 3.6 21:50:40 10° NNW 21:56:01 40° NE 22:01:22 10° ESE
STARLINK-1240 3.8 21:52:37 10° WSW 21:56:37 50° SSE 22:00:39 10° E
STARLINK-1206 3.6 21:55:02 10° W 21:59:05 56° S 22:03:10 10° ESE
Helios 1A 4.2 21:57:21 16° SSW 21:59:55 29° W 22:03:37 10° NNW
STARLINK-1216 3.8 21:57:34 10° WSW 22:01:36 51° SSE 22:05:37 10° E
Cosmos 2369 Rocket 2.2 21:57:13 13° SW 22:02:17 86° NW 22:07:59 10° NE
Cosmos 2315 Rocket 4.1 21:56:11 10° NNW 22:02:23 70° W 22:07:22 16° S
Cosmos 1908 3.2 21:58:34 10° NNW 22:02:23 68° W 22:04:55 20° S
CZ-2D R/B 4.0 21:58:38 10° NE 22:02:29 20° E 22:06:17 10° SE
Cosmos 1892 Rocket 4.3 22:00:32 15° SSE 22:03:50 44° E 22:08:01 10° NNE
STARLINK-1205 3.7 22:00:00 10° W 22:04:03 55° S 22:08:07 10° ESE
STARLINK-1237 3.7 22:02:31 10° WSW 22:06:33 52° S 22:10:36 10° E
STARLINK-1218 3.7 22:04:57 10° W 22:09:00 55° S 22:13:04 10° ESE
Cosmos 1726 Rocket 3.5 22:05:01 10° NNW 22:09:20 78° W 22:12:35 17° S
RESURS DK-1 4.4 22:07:31 10° SE 22:10:09 17° ESE 22:12:48 10° ENE
STARLINK-1202 3.7 22:07:29 10° WSW 22:11:32 53° S 22:15:35 10° E
Cosmos 1025 Rocket 4.0 22:08:42 13° SW 22:12:10 38° WNW 22:16:13 10° N
Resurs 1-4 Rocket 3.8 22:08:36 10° NE 22:12:53 24° E 22:17:09 10° SE
Cosmos 1943 Rocket 2.6 22:07:51 10° SW 22:13:22 61° NW 22:18:57 10° NNE
Helios 1B rocket 2.4 22:09:23 10° NNE 22:13:33 82° ESE 22:16:32 18° SSW
STARLINK-1254 3.7 22:09:56 10° W 22:13:59 54° S 22:18:02 10° ESE
Meteor 2-5 Rocket 4.0 22:10:21 15° S 22:14:47 60° E 22:20:19 10° NNE
STARLINK-1231 3.7 22:14:55 10° W 22:18:58 53° S 22:23:00 10° ESE
Cosmos 2098 Rocket 4.4 22:13:59 16° S 22:19:40 87° WNW 22:27:12 10° NNE
STARLINK-1246 3.7 22:17:23 10° WSW 22:21:27 54° S 22:25:30 10° E
KORONAS-FOTON 3.8 22:20:08 19° SSW 22:22:47 84° WNW 22:26:39 10° NNE
DELTA 2 DEB (DPAF) 4.3 22:18:51 11° SSE 22:23:07 77° ENE 22:27:36 10° NNW
CZ-4C R/B 4.1 22:19:44 10° SE 22:23:52 57° ENE 22:28:10 10° N
STARLINK-1232 3.7 22:19:53 10° W 22:23:56 52° S 22:27:58 10° ESE
ATLAS 5 CENTAUR R/B 0.6 22:23:07 16° SW 22:25:00 65° SSE 22:27:01 10° ENE
STARLINK-1228 3.9 22:23:20 10° W 22:26:16 29° SSW 22:29:11 10° SE
STARLINK-1224 3.7 22:22:21 10° WSW 22:26:24 55° S 22:30:28 10° E
STARLINK-1208 3.7 22:24:51 10° W 22:28:53 51° S 22:32:55 10° ESE
STARLINK-1234 3.8 22:26:21 10° W 22:29:03 27° SSW 22:31:45 10° SE
Cosmos 292 Rocket 4.4 22:25:11 11° SW 22:29:44 52° NW 22:34:31 10° NNE
STARLINK-1212 3.6 22:27:41 10° W 22:30:28 30° SSW 22:33:14 10° SE
GEOS 3 Rocket 4.2 22:26:35 13° S 22:30:44 37° SW 22:35:39 10° WNW
STARLINK-1105 3.6 22:28:10 10° W 22:30:56 30° SSW 22:33:41 10° SE
STARLINK-1209 3.9 22:28:16 10° W 22:30:57 26° SSW 22:33:39 10° SE
STARLINK-1225 3.7 22:27:19 10° WSW 22:31:23 56° S 22:35:28 10° E
STARLINK-1247 3.7 22:29:04 10° W 22:31:51 30° SSW 22:34:38 10° SE
STARLINK-1227 3.6 22:29:33 10° W 22:32:18 29° SSW 22:35:03 10° SE
Cosmos 2058 Rocket 3.1 22:28:29 10° NNW 22:32:53 71° W 22:36:30 15° S
STARLINK-1226 3.7 22:30:23 10° W 22:33:09 29° SSW 22:35:56 10° SE
COSMOS 2455 3.2 22:28:33 15° SSW 22:33:17 52° ESE 22:39:08 10° NE
STARLINK-1271 3.8 22:29:50 10° W 22:33:52 50° SSW 22:37:53 10° ESE
STARLINK-1215 3.7 22:31:19 10° W 22:34:06 29° SSW 22:36:52 10° SE
Cosmos 1726 4.1 22:31:41 10° NW 22:34:13 18° W 22:36:25 11° SW
Lacrosse 4 Rocket 3.5 22:30:19 10° NNW 22:34:19 32° NNE 22:38:14 10° E
BREEZE-M DEB (TANK) 2.9 22:31:15 10° WSW 22:35:40 28° SSW 22:37:54 10° SE
Cosmos 2228 3.8 22:31:48 10° NNW 22:35:46 38° W 22:38:43 16° SSW
Cosmos 2263 4.4 22:30:29 12° SW 22:35:47 72° NW 22:41:26 10° NNE
STARLINK-1217 3.7 22:33:06 10° W 22:35:51 29° SSW 22:38:36 10° SE
STARLINK-1230 3.7 22:32:16 10° WSW 22:36:21 56° S 22:40:25 10° E
STARLINK-1229 3.7 22:34:01 10° W 22:36:47 28° SSW 22:39:31 10° SE
SJ 16-02 2.5 22:33:01 10° NNW 22:37:17 45° NE 22:41:33 10° SE
Meteor 1-29 2.9 22:34:02 10° NNE 22:37:28 83° WNW 22:39:53 18° SSW
STARLINK-1270 3.7 22:34:53 10° W 22:37:38 28° SSW 22:40:23 10° SE
STARLINK-1154 3.8 22:34:49 10° W 22:38:49 49° SSW 22:42:50 10° ESE
STARLINK-1189 3.7 22:36:44 10° W 22:39:28 28° SSW 22:42:12 10° SE
STARLINK-1188 3.8 22:37:36 10° W 22:40:20 28° SSW 22:43:04 10° SE
IRAS Rocket 4.4 22:35:38 13° S 22:40:30 58° WSW 22:46:01 10° NNW
STARLINK-1235 3.9 22:38:21 10° W 22:40:56 24° SSW 22:43:32 10° SSE
Cosmos 1953 4.4 22:38:45 10° NW 22:41:11 16° W 22:43:37 10° WSW
STARLINK-1243 3.7 22:37:14 10° WSW 22:41:19 57° S 22:45:23 10° E
STARLINK-1187 3.8 22:38:45 10° W 22:41:23 26° SSW 22:44:03 10° SE
STARLINK-1191 3.8 22:40:06 10° W 22:42:47 27° SSW 22:45:28 10° SE
STARLINK-1221 3.8 22:40:58 10° W 22:43:39 27° SSW 22:46:20 10° SE
STARLINK-1197 3.8 22:39:47 10° W 22:43:47 48° SSW 22:47:47 10° ESE
STARLINK-1222 3.8 22:41:52 10° W 22:44:32 26° SSW 22:47:12 10° SE
STARLINK-1214 3.8 22:42:47 10° W 22:45:27 26° SSW 22:48:06 10° SE
Cosmos 1174 4.1 22:43:31 18° S 22:45:40 42° SE 22:49:20 10° NE
SL-14 R/B 3.3 22:43:13 16° S 22:46:16 74° E 22:50:09 10° NNE
STARLINK-1236 3.7 22:42:12 10° WSW 22:46:17 57° S 22:50:21 10° E
Cosmos 1300 2.8 22:43:15 10° NNW 22:47:03 64° W 22:50:08 15° S
Okean 1-7 Rocket 3.6 22:44:37 15° S 22:48:16 89° E 22:52:50 10° NNE
Starlink 7 placeholder 4.4 22:49:12 10° SE 22:49:12 10° SE 22:49:21 10° SE
STARLINK-1198 3.8 22:44:43 10° W 22:48:42 46° SSW 22:52:42 10° ESE
Cosmos 2219 3.2 22:43:22 10° NW 22:49:06 89° ENE 22:54:46 10° SSE
Cosmos 1461 4.5 22:46:07 10° W 22:50:08 37° NNW 22:54:22 10° NE
Cosmos 921 Rocket 3.8 22:46:47 13° S 22:50:18 43° ESE 22:54:25 10° NE
COSMOS 2487 4.2 22:49:49 10° WNW 22:52:14 18° W 22:53:49 14° SW
STARLINK-1199 3.9 22:49:44 10° W 22:53:42 45° SSW 22:57:40 10° ESE
Nadezhda 1 Rocket 4.0 22:48:28 10° NNW 22:54:38 86° W 23:00:52 10° S
STARLINK-1269 3.7 22:52:07 10° WSW 22:56:12 57° S 23:00:16 10° ESE
Cosmos 1626 Rocket 4.1 22:52:29 11° S 22:56:29 52° E 23:00:43 10° NNE
Cosmos 1656 Rocket 3.9 22:52:30 11° SW 22:57:56 69° NW 23:03:32 10° NNE
STARLINK-1210 3.9 22:54:41 10° W 22:58:39 44° SSW 23:02:35 10° SE
STARLINK-1200 3.7 22:57:07 10° W 23:01:11 57° S 23:05:15 10° ESE
Cosmos 1626 2.2 22:59:58 15° SSW 23:02:58 73° WNW 23:06:43 10° N
STARLINK-1219 3.9 22:59:40 10° W 23:03:36 42° SSW 23:07:32 10° SE
Cosmos 2297 Rocket 2.2 22:59:11 10° NW 23:04:53 87° WSW 23:10:33 10° SSE
STARLINK-60 4.4 23:04:02 15° SSW 23:05:39 22° SSE 23:08:13 10° E
STARLINK-1192 3.7 23:02:05 10° W 23:06:09 57° S 23:10:13 10° ESE
Cosmos 2082 4.3 23:02:41 10° NNW 23:08:22 63° NE 23:13:58 10° SE
STARLINK-1211 4.0 23:04:38 10° W 23:08:33 41° SSW 23:12:27 10° SE
CZ-4B R/B 4.4 23:04:49 10° NNE 23:09:44 45° E 23:14:44 10° S
MOZ.5/SAFIR/RUBIN 5/SL-8 3.9 23:05:36 11° S 23:10:01 57° WSW 23:14:38 10° NNW
UNK 3.7 23:05:58 10° S 23:10:35 71° WSW 23:15:12 10° NNW
STARLINK-1244 3.7 23:07:01 10° W 23:11:06 56° S 23:15:10 10° ESE
SL-19 R/B 4.3 23:06:23 10° NNE 23:11:43 76° WNW 23:16:57 12° SSW
Cosmos 1812 Rocket 3.6 23:07:43 10° NNW 23:12:15 88° W 23:16:43 10° S
Timation 2 Rocket 4.5 23:07:16 10° NW 23:13:14 41° WSW 23:18:56 10° S
STARLINK-1245 4.0 23:09:38 10° W 23:13:31 40° SSW 23:17:24 10° SE
Cosmos 990 Rocket 4.2 23:09:08 10° NNW 23:14:27 81° ENE 23:19:43 10° SSE
STARLINK-1138 3.7 23:12:00 10° W 23:16:04 56° S 23:20:08 10° ESE
NOSS 3-4 (A) 3.5 23:10:14 10° SW 23:16:17 86° SE 23:22:55 10° NE
NOSS 3-4 (C) 3.5 23:10:19 10° SW 23:16:23 86° SE 23:23:02 10° NE
ERBS 2.4 23:13:17 10° W 23:16:37 77° N 23:19:59 10° E
SL-4 R/B 3.3 23:13:39 12° SW 23:17:28 32° SSE 23:21:37 10° E
SL-16 R/B 2.6 23:11:44 10° S 23:17:50 64° WSW 23:24:01 10° NNW
ATLAS 3B R/B 3.5 23:12:28 10° WNW 23:18:17 31° WSW 23:24:16 10° S
STARLINK-1233 4.1 23:14:36 10° W 23:18:28 38° SSW 23:22:19 10° SE
ERS-2 4.2 23:15:16 10° ESE 23:18:28 29° ENE 23:21:41 10° N
STARLINK-1203 3.7 23:14:22 10° W 23:18:29 56° S 23:22:37 10° ESE
Cosmos 2263 Rocket 4.2 23:15:10 10° NNW 23:20:15 32° NE 23:25:16 10° E
STARLINK-1143 3.7 23:16:58 10° W 23:21:02 55° S 23:25:06 10° ESE
CENTAUR R/B 4.4 23:15:49 10° WNW 23:21:35 22° WSW 23:27:40 10° SSW
Cosmos 1674 4.4 23:18:51 10° WSW 23:21:53 23° WNW 23:24:55 10° N
Cosmos 1437 2.6 23:20:41 14° SSW 23:23:13 72° WNW 23:26:15 10° N
STARLINK-1204 4.1 23:19:35 10° W 23:23:26 37° SSW 23:27:15 10° SE
ATLAS CENTAUR R/B 1.4 23:20:47 12° SW 23:24:50 73° SE 23:28:53 10° NE
STARLINK-1241 3.7 23:21:56 10° W 23:26:00 55° S 23:30:03 10° ESE
STARLINK-1238 4.2 23:24:32 10° W 23:28:21 35° SSW 23:32:09 10° SE
IRS-1D 4.5 23:23:14 10° NNE 23:28:24 46° E 23:33:29 10° S
Meteor 2-1 Rocket 4.3 23:23:43 10° NNW 23:29:12 65° W 23:34:39 10° S
Cosmos 1602 Rocket 3.6 23:24:52 10° S 23:29:12 81° E 23:33:33 10° NNE
Cosmos 1455 2.2 23:25:46 10° NNW 23:29:33 86° ENE 23:33:17 10° SSE
STARLINK-1239 3.7 23:26:54 10° W 23:30:57 54° S 23:35:00 10° ESE
GP-B 3.4 23:28:35 10° N 23:33:03 67° E 23:37:28 10° S
STARLINK-1201 4.2 23:29:33 10° W 23:33:20 34° SSW 23:37:05 10° SE
Cosmos 1745 Rocket 4.0 23:28:09 10° SSW 23:34:18 76° WNW 23:40:28 10° N
Cosmos 2181 Rocket 4.2 23:29:06 10° N 23:35:32 82° ENE 23:42:00 10° SSE
STARLINK-1240 3.7 23:31:53 10° W 23:35:56 53° S 23:39:58 10° ESE
Cosmos-2242 3.2 23:32:52 10° N 23:37:11 78° ENE 23:41:26 10° SSE
STARLINK-1206 4.3 23:34:32 10° W 23:38:16 33° SSW 23:41:59 10° SE
Cosmos 2227 Rocket 2.3 23:34:47 10° NW 23:40:24 61° WSW 23:45:59 10° SSE
Cosmos 1400 Rocket 4.1 23:36:42 10° N 23:40:40 45° ENE 23:44:38 10° SE
STARLINK-1216 3.8 23:36:51 10° W 23:40:54 52° S 23:44:56 10° ESE
STARLINK-1205 4.3 23:39:31 10° W 23:43:13 31° SSW 23:46:54 10° SE
CZ-2D R/B 2.1 23:37:56 10° NNE 23:43:16 86° WNW 23:48:30 10° SSW
Meteor 1-24 Rocket 4.3 23:40:04 10° SW 23:45:09 44° WNW 23:50:22 10° N
SL-08 R/B 3.6 23:40:29 10° SSE 23:45:10 74° ENE 23:49:48 10° NNW
ATLAS 2AS CENTAUR R/B 3.3 23:37:24 10° WSW 23:45:28 77° NNW 23:53:18 10° NE
Cosmos 1356 Rocket 4.5 23:42:09 10° NNW 23:45:46 30° W 23:49:24 10° SSW
STARLINK-1237 3.8 23:41:49 10° W 23:45:52 51° S 23:49:53 10° ESE
ADEOS II 2.9 23:41:08 10° NNE 23:46:16 50° E 23:51:22 10° S
Cosmos 2369 Rocket 3.8 23:42:08 10° W 23:47:05 30° NNW 23:52:01 10° NNE
RESURS DK-1 2.4 23:43:28 10° SW 23:47:37 86° WNW 23:51:48 10° NE
STARLINK-1218 4.4 23:44:30 10° W 23:48:09 30° SSW 23:51:47 10° SE
Cosmos 1697 Rocket 4.2 23:43:35 10° SSE 23:48:25 30° ESE 23:53:17 10° NE
Cosmos 1763 Rocket 4.5 23:45:05 10° S 23:49:50 40° ESE 23:54:34 10° NE
STARLINK-1202 3.8 23:46:49 10° W 23:50:50 50° SSW 23:54:52 10° ESE
STARLINK-1254 4.5 23:49:30 10° W 23:53:06 29° SSW 23:56:42 10° SSE
Resurs 1-4 Rocket 2.2 23:47:57 10° NNE 23:53:15 73° WNW 23:58:31 10° SSW
